Regional Weather Roundup
Issued by NWS

Home | Current Version | Previous Version | Text Only | Print | Product List | Glossary On
Versions: 1 2 3 4 5 6 7 8 9 10 11 12 13 14 15 16 17 18 19 20 21 22 23 24 25 26 27 28 29 30 31 32 33 34 35 36 37 38 39 40 41 42 43 44 45 46 47 48 49 50
000
ASUS43 KMPX 262101
RWRMN
WEATHER ROUNDUP FOR MINNESOTA
NATIONAL WEATHER SERVICE TWIN CITIES/CHANHASSEN MN
400 PM CDT SUN APR 26 2015


NOTE: "FAIR" INDICATES FEW OR NO CLOUDS BELOW 12,000 FEET WITH NO
SIGNIFICANT WEATHER AND/OR OBSTRUCTIONS TO VISIBILITY. N/A MEANS
CURRENT SKY AND/OR WEATHER CONDITIONS ARE NOT AVAILABLE.

MNZ060>063-068>070-262200-
   Twin Cities Metro

CITY           SKY/WX    TMP DP  RH WIND       PRES   REMARKS
TWIN CITIES    MOSUNNY   61  22  22 E5        30.09F
ST PAUL        SUNNY     61  20  20 CALM      30.09F
CRYSTAL        SUNNY     63  20  19 N8        30.08F
BLAINE         SUNNY     63  25  23 VRB6      30.09F
LAKEVILLE      SUNNY     59  25  27 NE3       30.08F
EDEN PRAIRIE   SUNNY     62  21  20 E5        30.07F
SOUTH ST PAUL  SUNNY     62  22  22 N7        30.08F
LAKE ELMO      FAIR      61  27  27 N10       30.09F
$$
MNZ001>005-007-008-013>017-022>024-027-028-262200-
   Northwest Minnesota

CITY           SKY/WX    TMP DP  RH WIND       PRES   REMARKS
BEMIDJI        MOSUNNY   60  22  22 E6        30.13F
HALLOCK        SUNNY     68  18  14 SE9       30.10F
ROSEAU         SUNNY     66  25  20 SW7       30.12F
WARROAD        MOSUNNY   54  28  37 E13       30.15F
THIEF RVR FALL SUNNY     64  25  22 CALM      30.13S
CROOKSTON      SUNNY     66  27  22 CALM      30.12F
FOSSTON        SUNNY     66  28  24 E5        30.13S
DETROIT LAKES  SUNNY     63  23  22 N9        30.13S
MOORHEAD       SUNNY     64  25  22 E13G22    30.11F
PARK RAPIDS    SUNNY     61  17  18 CALM      30.12F
MAHNOMEN       FAIR      64  24  21 NE5       30.11F
$$
MNZ006-009>011-018-025>026-262200-
   North Central Minnesota

CITY           SKY/WX    TMP DP  RH WIND       PRES   REMARKS
BAUDETTE       SUNNY     62  23  22 VRB7      30.14F
FLAG ISLAND    MOSUNNY   54  25  32 SE3       30.15S
INTL FALLS     SUNNY     58   3  11 NE7       30.16F
WASKISH        SUNNY     55  30  38 W9        30.14F
BIG FORK       SUNNY     63  16  16 CALM      30.14S
LONGVILLE      SUNNY     63  12  14 NW5       30.13S
GRAND RAPIDS   SUNNY     61  18  18 NE9       30.13F
CRANE LAKE     SUNNY     57  12  17 W3        30.17S
ORR            SUNNY     61   7  11 NW7       30.12S
COOK           SUNNY     59  18  20 W5        30.14F
WALKER         FAIR      58  18  21 SE7       30.14F
$$
MNZ012-019>021-037-262200-
   Northeast Minnesota

CITY           SKY/WX    TMP DP  RH WIND       PRES   REMARKS
DULUTH         SUNNY     54  15  21 E10       30.14F
ELY            SUNNY     57  12  17 E8        30.13F
HIBBING        SUNNY     61  11  14 N7        30.13S
EVELETH        SUNNY     59  14  17 CALM      30.13F
DULUTH HARBOR  SUNNY     41  32  70 NE5       30.18F
TWO HARBORS    SUNNY     54  28  37 SE9       30.14S
SILVER BAY     SUNNY     52  23  32 E7        30.14F
GRAND MARAIS     N/A     44  33  65 W7        30.18S
G MARAIS ARPRT SUNNY     48  25  40 SE8       30.14S
$$
MNZ029>031-032-039>041-046>048-054>057-064-262200-
   West Central Minnesota

CITY           SKY/WX    TMP DP  RH WIND       PRES   REMARKS
FERGUS FALLS   SUNNY     63  16  16 CALM      30.11F
WHEATON        SUNNY     63  28  27 NE6       30.11F
MORRIS         SUNNY     64  23  20 NE9       30.09F
ALEXANDRIA     SUNNY     61  19  19 MISG      30.12F
ELBOW LAKE     FAIR      61  25  25 E10       30.11S
WADENA         SUNNY     63  27  25 NE8       30.12S
GLENWOOD       SUNNY     63  16  16 E6        30.11F
APPLETON       SUNNY     66  21  18 E13       30.09S
BENSON         SUNNY     63  10  13 SE7       30.10F
ORTONVILLE     SUNNY     64  25  22 NE6       30.09F
MADISON        SUNNY     64  27  24 N12       30.08F
WILLMAR        FAIR      63  23  22 NE7       30.11S
$$
MNZ033>034-036-042>043-049>051-058-059-262200-
   Central Minnesota

CITY           SKY/WX    TMP DP  RH WIND       PRES   REMARKS
ST CLOUD       SUNNY     62  21  20 VRB6      30.10F
SAUK CENTRE    FAIR      60  19  20 NE8       30.11F
PAYNESVILLE    SUNNY     58  17  19 N7        30.11S
AITKIN         SUNNY     63  -9   5 CALM      30.11S
PINE RIVER     SUNNY     61  25  25 CALM      30.15F
BRAINERD       SUNNY     60  15  17 NE5       30.13F
STAPLES        SUNNY     61  10  13 CALM      30.12F
LONG PRAIRIE   FAIR      59  14  17 NE9       30.12F
LITTLE FALLS   SUNNY     59  10  14 N3        30.12S
LITCHFIELD     SUNNY     61  18  18 N3        30.10S
BUFFALO        SUNNY     61  22  21 NE9       30.11S
MAPLE LAKE     SUNNY     62  23  22 E8        30.10F
$$
MNZ037-044-045-052-053-262200-
   East Central Minnesota

CITY           SKY/WX    TMP DP  RH WIND       PRES   REMARKS
PRINCETON      SUNNY     63  25  23 N8        30.11S
MORA           SUNNY     59  21  23 CALM      30.12F
CAMBRIDGE      SUNNY     63  37  39 NE6       30.09S
RUSH CITY      SUNNY     61  24  24 NE7       30.11S
MOOSE LAKE     SUNNY     57  18  21 CALM      30.12F
HINCKLEY       FAIR      63  27  25 N9        30.11S
CLOQUET        SUNNY     55  10  16 E5        30.14S
MCGREGOR       SUNNY     61  19  20 E9        30.12F
$$
MNZ071>073-080-081-089-090-097-098-262200-
   Southwest Minnesota

CITY           SKY/WX    TMP DP  RH WIND       PRES   REMARKS
MONTEVIDEO     SUNNY     66  27  22 SE7       30.09F
GRANITE FALLS  SUNNY     63  27  25 NE8       30.09S
CANBY          SUNNY     64  29  26 NE13      30.09S
MARSHALL       SUNNY     64  27  24 N9        30.07S
REDWOOD FALLS  SUNNY     65  20  17 N9        30.07F
OLIVIA         SUNNY     61  19  20 N6        30.07F
PIPESTONE      SUNNY     63  28  27 N8        30.06S
WINDOM         SUNNY     64  25  22 NE2       30.05F
WORTHINGTON    SUNNY     63  28  27 NE10      30.05F
JACKSON        SUNNY     64  25  22 NE13G18   30.05F
TRACY          SUNNY     66  28  24 NE9G18    30.07S
SLAYTON        SUNNY     63  26  24 CALM      30.06F HAZE
$$
MNZ065>067-074>077-082>085-091>093-262200-
   South Central Minnesota

CITY           SKY/WX    TMP DP  RH WIND       PRES   REMARKS
MANKATO        SUNNY     61  23  23 NE7       30.07F
NEW ULM        SUNNY     63  23  22 NE8       30.06S
FAIRMONT       SUNNY     64  30  27 N6        30.05S
GLENCOE        SUNNY     63  20  19 NE6       30.08S
FARIBAULT      SUNNY     63  25  23 N9        30.08F
OWATONNA       SUNNY     61  19  20 N5        30.07F
WASECA         SUNNY     59  25  27 CALM      30.08F
ALBERT LEA     SUNNY     59  27  29 NE7       30.06F
$$
MNZ078>079-086>088-094>096-262200-
   Southeast Minnesota

CITY           SKY/WX    TMP DP  RH WIND       PRES   REMARKS
ROCHESTER      SUNNY     59  28  30 NE8       30.08F
RED WING       SUNNY     63  21  20 N7        30.06F
STANTON        SUNNY     62  18  18 E7        30.07F
DODGE CENTER   SUNNY     57  25  28 CALM      30.07F
WINONA         SUNNY     61  27  27 NW5       30.06F
AUSTIN         SUNNY     57  28  33 N6        30.06F
PRESTON        SUNNY     57  25  29 N9G16     30.06F
$$
ABBREVIATIONS USED IN REMARKS
   TC - TEMPERATURES IN CELSIUS
  WCI - WIND CHILL INDEX
   HX - HEAT INDEX
  VSB - VISIBILITY
$$


USA.gov is the U.S. government's official web portal to all federal, state and local government web resources and services.